sat.trackr.live / text

‹ back to catalog

STARLINK-34584

NORAD 64697 · 2025-142B

PAYLOAD ACTIVE UNKNOWN

§ Identity

Operator
Country
US
Launch date
2025-06-28
Launch site
AFWTR
Launch vehicle
Mass (kg)
RCS (m²)

Purposes: comms

External: N2YO · Heavens-Above · Gunter

§ Orbital elements

Epoch: 2026-05-25T04:36:19.922400Z

Period
96.11 min
Inclination
70.0002°
Eccentricity
0.0003677
Mean motion
14.98334641 rev/d
Perigee alt
569.5 km
Apogee alt
574.6 km
Semi-major
6,950.2 km
B*
1.7821e-4
RAAN
121.4227°
Arg perigee
265.9817°
Mean anomaly
94.0921°
Rev number
5,094

§ Raw data

STARLINK-345841 64697U 25142B   26145.19189725  .00002034  00000+0  17821-3 0  99962 64697  70.0002 121.4227 0003677 265.9817  94.0921 14.98334641 50949

JSON: /api/v1/satellites/64697 · /tle

For live sub-satellite position, see the globe view (requires WebGL).

§ Visibility from observer

Set your observer location to see the next 7 days of passes ≥ 10°. The values pass through the URL so the page stays shareable.

No JS? Fill the form by hand. The geolocation button needs JavaScript.